STARLINK-2143, 47733

Orbit data source: Space-Track

STARLINK-2143, 47733 is a payload satellite owned by SpaceX/Seattle (US) in LEO that was launched on Thu, 04 Mar 2021 UTC via an FALCON 9 launch vehicle from the Air Force Eastern Test Range (AFETR). Payload-class satellites include a variety of spacecraft equipped with specific instruments for various scientific and technological missions. These include communications satellites like Starlink; space stations such as the ISS; scientific satellites like the Hubble; Earth observation satellites from companies like Planet Labs, Umbra, and HawkEye 360; GPS; miniature CubeSats for education and research; and military/defense satellites.

Loading next visibility...
Identifier
47733, 2021-017M
Orbit
LEO
Country
Flag of USUS
Related business
Manufacturer
SpaceX/Seattle
Mission
Operational Commercial Communications
Bus & Motor
STARLINK, Unknown motor
Mass
260 kg wet, ~248 kg dry
Launch date (UTC)
2021-03-04 (5 years ago)
Launch vehicle
FALCON 9
Launch site
Air Force Eastern Test Range (AFETR)
Object type
Payload
Rocket body
Debris
Shape & HBR
Box + 1 Pan, 10.1 m
Radar Cross Section
13.562 m², Large (>1 m²)

Expand to show TLE details & history
Last TLE update: 12 hours ago

TLE from 12 hours ago
0 STARLINK-2143
1 47733U 21017M   25347.00659965 -.00001946  00000-0 -11184-3 0  9996
2 47733  53.0533 250.7499 0001453  93.9739 266.1416 15.06385162264571
Epoch: 2025-12-13T00:09Z
TLE epoch observation values (Epoch: 2025-12-13T00:09:30.209Z)
Latitude
-0.00004°
Longitude
166.43394°
Altitude
548.204 km
Speed
7.589 km/s
True Right ascension
16h 42m 59s
True Declination
0° 00' 00"
Sunlit
Object was in daylight at epoch
Visualization orbit readout
Latitude
Unknown
Longitude
Unknown
Altitude
Unknown
Speed
Unknown
Apparent Right ascension
Unknown
Apparent Declination
Unknown
Sunlit
N/A
Visualization observer readout
Local Sidereal Time
11:00:55
Azimuth
Unknown
Elevation
Unknown
Doppler factor
Unknown
Orbital elements
Apogee altitude
548.534 km
Perigee altitude
546.522 km
Semi-major axis
6,925.665 km
Eccentricity
0.00015
Inclination
53.0533°
RAAN
250.7499°
Arg. of periapsis
93.9739°
True anomaly
266.12499°
Mean anomaly
266.1416°
Eccentric anomaly
266.13329°
Mean motion
3.76575 °/min
Orbital period
95.6 mins
BSTAR
-0.00011184
Loading maneuver chart data...
Computing Atmospheric mass density...
Loading historical data...
Loading historical data...
Loading historical data...
Loading historical data...
Loading historical data...
Loading historical data...
Loading historical data...

Documentation

Showing up to 5 results
|